Location: Sungai Igah
(2.7333°N, 114.2500°E)
Time: 06:48:13
(UTC+00:00)

Cosmos 2285 Rocket - Visible Passes

Search period start: 26 October 2021 00:00
Search period end: 05 November 2021 00:00
Orbit: 970 x 999 km, 74.0° (Epoch: 25 October)

Date Brightness Start Highest point End Pass type
(mag) Time Alt. Az. Time Alt. Az. Time Alt. Az.
27 Oct 6.0 11:54:35 10° SSE 11:55:21 13° SSE 11:55:21 13° SSE visible
28 Oct 5.5 12:21:48 10° S 12:24:11 25° S 12:24:11 25° S visible
29 Oct 5.8 11:07:06 10° SE 11:08:11 12° ESE 11:08:11 12° ESE visible
29 Oct 5.7 12:50:19 10° SSW 12:53:07 26° SW 12:53:07 26° SW visible
30 Oct 4.7 11:32:32 10° SSE 11:37:12 33° ESE 11:37:12 33° ESE visible
30 Oct 6.4 13:20:24 10° WSW 13:22:08 15° WSW 13:22:08 15° WSW visible
31 Oct 3.8 12:00:07 10° S 12:06:19 86° SE 12:06:19 86° SE visible
01 Nov 5.4 10:44:20 10° SE 10:48:16 17° ESE 10:50:35 14° ENE visible
01 Nov 5.1 12:28:58 10° SW 12:34:43 38° WNW 12:35:32 36° WNW visible
02 Nov 4.3 11:10:36 10° S 11:16:32 44° ESE 11:19:53 24° NE visible
02 Nov 6.4 12:59:45 10° WSW 13:03:04 15° WNW 13:04:51 13° WNW visible
03 Nov 4.1 11:38:31 10° SSW 11:44:49 76° WNW 11:49:18 20° N visible
04 Nov 5.1 10:21:56 10° SSE 10:26:39 22° ESE 10:31:21 10° NE visible
04 Nov 5.6 12:07:43 10° SW 12:13:06 30° WNW 12:18:32 10° NNW visible
04 Nov 7.2 21:45:10 10° ENE 21:45:52 10° ENE 21:46:35 10° E visible
